Find Nigcomsat 1

NORAD ID: 31395 Int'l Des: 2007-018 Owner: NGCOM Country: NG operational
HEOCIRCULARGSO

Live-Position

3D-Globus wird geladen...

Über Nigcomsat 1

Beschreibung wird geladen...

Nächste Überflüge

Passes for default location (London). Set your location on the main map for personalized predictions.

Höhenverlauf

Loading altitude history...

Zweizeiliger Elementsatz

1 31395U 07018A 26119.73080743 -.00000262 00000-0 00000+0 0 9998
2 31395 11.7885 33.2490 0003242 98.8354 82.7680 1.00213182 69578
Epoch: 29. Apr. 2026 • Age: 20 hours

Aktueller Status

Höhe 35789.2 km
Geschwindigkeit 3.08 km/s
Subsatellitenpunkt 10.33°N, 94.44°E
Startdatum 13. Mai 2007
Alter 18.9 years
Typ other

Technische Details

Klassifizierung Payload
Masse 5086.00 kg
Trockenmasse 2500.00 kg
Gesamtmasse 5086.00 kg
Länge 5.00 m
Durchmesser 2.50 m
Spannweite 30.00 m
Form Box + 2 Pan
Hersteller CAST
Bus-Typ DFH-4
Phasenstatus In Orbit
Besitzer/Staat NGCOM/NG

Most Searched